User: anonymous   Login
Location: Laverne
(36.7100°N, 99.8930°W)
Time: 09:14:58
(UTC-05:00)
Language:

Iridium 32 - Orbit

View from above orbital plane
View from above orbital plane
View from above satellite
View from above satellite

Ground track
Ground track

The orbit data is extracted from the following two-line orbital elements,

1 24945U 97051B   16125.44678113  .00000017  00000-0 -92069-6 0  9996
2 24945  86.3942  97.9971 0002152  81.4186 278.7253 14.34214280975833
Epoch (UTC): 04 May 2016 10:43:21
Eccentricity: 0.0002152
inclination: 86.3942°
perigee height: 776 km
apogee height: 779 km
right ascension of ascending node: 97.9971°
argument of perigee: 81.4186°
revolutions per day: 14.34214280
mean anomaly at epoch: 278.7253°
orbit number at epoch: 97583

The dashed part of the orbit path shows where the satellite is in the earth's shadow,  

DLR